This is the latest recevied weather packets stored in our database for station/object KK7PZE-13. If no packets are shown the sender has not sent any weather packets the latest 1 day(s).
| Time | Temp. | Humidity | Pressure | Rain* | Wind** | Luminosity | Snow |
|---|---|---|---|---|---|---|---|
| 1778042081 | 17.22° C | 32% | 1011.8 hPa | 0 mm | 1.34 m/s, 237° | - | - |
| 1778041475 | 17.22° C | 32% | 1011.8 hPa | 0 mm | 1.34 m/s, 233° | - | - |
| 1778040875 | 17.78° C | 31% | 1011.7 hPa | 0 mm | 0.89 m/s, 227° | - | - |
| 1778040275 | 17.78° C | 31% | 1011.7 hPa | 0 mm | 1.34 m/s, 205° | - | - |
| 1778039076 | 17.78° C | 30% | 1011.4 hPa | 0 mm | 0.89 m/s, 170° | - | - |
| 1778038476 | 17.78° C | 30% | 1011.2 hPa | 0 mm | 1.34 m/s, 213° | - | - |
| 1778037875 | 17.78° C | 30% | 1011.3 hPa | 0 mm | 0.89 m/s, 163° | - | - |
| 1778037275 | 18.33° C | 30% | 1011.2 hPa | 0 mm | 0.89 m/s, 233° | - | - |
| 1778036675 | 18.33° C | 30% | 1011 hPa | 0 mm | 0 m/s | - | - |
| 1778036271 | 18.33° C | 30% | 1011 hPa | 0 mm | 0.89 m/s, 202° | - | - |
| 1778036075 | 18.33° C | 30% | 1011 hPa | 0 mm | 0.89 m/s, 202° | - | - |
| 1778035648 | 18.89° C | 29% | 1010.8 hPa | 0 mm | 1.34 m/s, 221° | - | - |
| 1778035477 | 18.89° C | 29% | 1010.8 hPa | 0 mm | 1.34 m/s, 221° | - | - |
| 1778034874 | 18.89° C | 29% | 1010.8 hPa | 0 mm | 0.89 m/s, 215° | - | - |
| 1778034275 | 18.89° C | 29% | 1010.6 hPa | 0 mm | 0.89 m/s, 193° | - | - |
| 1778033675 | 19.44° C | 28% | 1010.4 hPa | 0 mm | 1.79 m/s, 229° | - | - |
| 1778033074 | 19.44° C | 28% | 1010.1 hPa | 0 mm | 1.34 m/s, 219° | - | - |
| 1778032475 | 20° C | 27% | 1010.1 hPa | 0 mm | 3.13 m/s, 204° | - | - |
| 1778031275 | 20.56° C | 26% | 1009.9 hPa | 0 mm | 1.34 m/s, 185° | - | - |
| 1778030674 | 20° C | 26% | 1010 hPa | 0 mm | 1.79 m/s, 209° | - | - |
| 1778030227 | 20.56° C | 26% | 1010 hPa | 0 mm | 1.79 m/s, 169° | - | - |
| 1778030076 | 20.56° C | 26% | 1010 hPa | 0 mm | 1.79 m/s, 169° | - | - |
| 1778028910 | 21.11° C | 25% | 1009.7 hPa | 0 mm | 1.34 m/s, 247° | - | - |
| 1778028875 | 21.11° C | 25% | 1009.7 hPa | 0 mm | 1.34 m/s, 247° | - | - |
| 1778027789 | 21.67° C | 24% | 1009.6 hPa | 0 mm | 2.24 m/s, 226° | - | - |
* Rain latest hour (hover to see other rain measurements)
** Current wind speed in m/s (hover to see current wind gust speed)